C6066 KECG-KNTU

Flight info

Callsign C6066
Flight time N/A
Altitude 1000
Route KECG-VFR-KNTU
Aircraft H60/L-G/C

Departure

Time N/A
Airport Elizabeth City Regional Airport & Coast Guard Air Station (KECG)

Arrival

Time 2026-04-12 02:44
Airport Oceana Naval Air Station (KNTU)
Time Latitude Longitude Altitude Speed Heading
2026-04-12 01:01 36.26180 -76.17365 -1 ft 0 kts 204°
2026-04-12 01:04 36.26178 -76.17364 9 ft 2 kts 204°
2026-04-12 01:04 36.26141 -76.17391 25 ft 9 kts 205°
2026-04-12 01:05 36.26116 -76.17466 59 ft 18 kts 274°
2026-04-12 01:05 36.26121 -76.18026 60 ft 114 kts 275°
2026-04-12 01:05 36.26235 -76.19180 125 ft 148 kts 286°
2026-04-12 01:05 36.26706 -76.20323 273 ft 145 kts 308°
2026-04-12 01:06 36.27278 -76.21322 593 ft 148 kts 311°
2026-04-12 01:06 36.28141 -76.22150 352 ft 163 kts 333°
2026-04-12 01:06 36.29184 -76.22595 289 ft 158 kts 354°
2026-04-12 01:06 36.30270 -76.22810 300 ft 155 kts 355°
2026-04-12 01:07 36.31352 -76.22871 297 ft 157 kts
2026-04-12 01:07 36.32408 -76.22585 211 ft 156 kts 20°
2026-04-12 01:07 36.33477 -76.22383 197 ft 155 kts
2026-04-12 01:08 36.35543 -76.21997 276 ft 144 kts 26°
2026-04-12 01:08 36.36400 -76.21383 384 ft 141 kts 33°
2026-04-12 01:08 36.37319 -76.20975 408 ft 148 kts 13°
2026-04-12 01:08 36.38361 -76.20813 336 ft 153 kts 10°
2026-04-12 01:09 36.39410 -76.20649 358 ft 151 kts 13°
2026-04-12 01:09 36.40476 -76.20623 338 ft 156 kts
2026-04-12 01:09 36.41571 -76.20717 276 ft 159 kts 359°
2026-04-12 01:09 36.42668 -76.20817 263 ft 156 kts 359°
2026-04-12 01:10 36.43734 -76.20993 330 ft 155 kts 350°
2026-04-12 01:10 36.44775 -76.21330 398 ft 154 kts 349°
2026-04-12 01:10 36.45825 -76.21587 470 ft 153 kts 356°
2026-04-12 01:10 36.46897 -76.21741 463 ft 156 kts 357°
2026-04-12 01:11 36.47975 -76.21903 455 ft 155 kts 355°
2026-04-12 01:11 36.48998 -76.22071 445 ft 141 kts 355°
2026-04-12 01:11 36.49943 -76.22257 443 ft 133 kts 355°
2026-04-12 01:11 36.50846 -76.22441 453 ft 130 kts 355°
2026-04-12 01:12 36.51728 -76.22623 454 ft 128 kts 355°
2026-04-12 01:12 36.52606 -76.22796 456 ft 127 kts 355°
2026-04-12 01:12 36.53482 -76.22973 456 ft 128 kts 355°
2026-04-12 01:12 36.54360 -76.23158 454 ft 127 kts 355°
2026-04-12 01:13 36.55232 -76.23342 455 ft 127 kts 355°
2026-04-12 01:13 36.56105 -76.23521 455 ft 126 kts 355°
2026-04-12 01:13 36.56972 -76.23686 467 ft 126 kts 355°
2026-04-12 01:13 36.57932 -76.23859 457 ft 152 kts 355°
2026-04-12 01:14 36.58991 -76.24048 457 ft 154 kts 355°
2026-04-12 01:14 36.60048 -76.24218 462 ft 153 kts 355°
2026-04-12 01:14 36.61100 -76.24401 468 ft 153 kts 355°
2026-04-12 01:14 36.62164 -76.24599 470 ft 155 kts 355°
2026-04-12 01:15 36.63230 -76.24798 471 ft 154 kts 355°
2026-04-12 01:15 36.64290 -76.24983 468 ft 154 kts 355°
2026-04-12 01:15 36.65354 -76.25157 469 ft 153 kts 355°
2026-04-12 01:15 36.66395 -76.25343 472 ft 152 kts 355°
2026-04-12 01:16 36.67450 -76.25522 471 ft 152 kts 355°
2026-04-12 01:16 36.68499 -76.25696 472 ft 153 kts 355°
2026-04-12 01:16 36.69563 -76.25889 485 ft 155 kts 355°
2026-04-12 01:16 36.70637 -76.26077 483 ft 155 kts 355°
2026-04-12 01:17 36.71708 -76.26252 482 ft 154 kts 355°
2026-04-12 01:17 36.72773 -76.26415 482 ft 152 kts 355°
2026-04-12 01:17 36.73830 -76.26600 481 ft 155 kts 355°
2026-04-12 01:17 36.74891 -76.26792 483 ft 154 kts 355°
2026-04-12 01:18 36.75958 -76.26977 482 ft 155 kts 355°
2026-04-12 01:18 36.77025 -76.27147 479 ft 155 kts 355°
2026-04-12 01:18 36.78089 -76.27327 477 ft 156 kts 355°
2026-04-12 01:18 36.79157 -76.27520 454 ft 157 kts 355°
2026-04-12 01:19 36.80244 -76.27712 460 ft 158 kts 355°
2026-04-12 01:19 36.81339 -76.27899 460 ft 159 kts 355°
2026-04-12 01:19 36.82432 -76.28094 461 ft 161 kts 355°
2026-04-12 01:19 36.83491 -76.28431 462 ft 154 kts 342°
2026-04-12 01:20 36.84404 -76.29100 458 ft 152 kts 324°
2026-04-12 01:20 36.85183 -76.30038 456 ft 164 kts 317°
2026-04-12 01:20 36.85945 -76.31152 456 ft 162 kts 310°
2026-04-12 01:20 36.86645 -76.32245 454 ft 166 kts 310°
2026-04-12 01:21 36.87359 -76.33363 453 ft 163 kts 310°
2026-04-12 01:21 36.88068 -76.34472 453 ft 162 kts 310°
2026-04-12 01:21 36.88763 -76.35539 453 ft 162 kts 310°
2026-04-12 01:21 36.89490 -76.36652 445 ft 169 kts 310°
2026-04-12 01:22 36.90259 -76.37812 449 ft 177 kts 310°
2026-04-12 01:22 36.91045 -76.39006 449 ft 182 kts 310°
2026-04-12 01:22 36.91849 -76.40246 448 ft 185 kts 310°
2026-04-12 01:22 36.92680 -76.41509 452 ft 186 kts 310°
2026-04-12 01:23 36.93501 -76.42770 449 ft 187 kts 310°
2026-04-12 01:23 36.94319 -76.44011 451 ft 187 kts 310°
2026-04-12 01:23 36.95143 -76.45276 452 ft 188 kts 310°
2026-04-12 01:23 36.95971 -76.46539 452 ft 188 kts 311°
2026-04-12 01:24 36.96804 -76.47807 449 ft 189 kts 311°
2026-04-12 01:24 36.97718 -76.49006 446 ft 192 kts 321°
2026-04-12 01:24 36.98689 -76.50065 486 ft 165 kts 321°
2026-04-12 01:24 36.99531 -76.51001 474 ft 169 kts 321°
2026-04-12 01:25 37.00398 -76.51938 472 ft 165 kts 321°
2026-04-12 01:25 37.01255 -76.52871 470 ft 163 kts 321°
2026-04-12 01:25 37.02106 -76.53773 470 ft 160 kts 321°
2026-04-12 01:25 37.02958 -76.54687 472 ft 161 kts 321°
2026-04-12 01:26 37.03506 -76.55277 469 ft 159 kts 321°
2026-04-12 01:26 37.04573 -76.56442 464 ft 165 kts 321°
2026-04-12 01:26 37.05436 -76.57366 462 ft 161 kts 321°
2026-04-12 01:26 37.06290 -76.58296 465 ft 162 kts 321°
2026-04-12 01:27 37.07138 -76.59223 460 ft 161 kts 321°
2026-04-12 01:27 37.07990 -76.60148 465 ft 162 kts 321°
2026-04-12 01:27 37.08848 -76.61085 463 ft 162 kts 321°
2026-04-12 01:27 37.09698 -76.62005 457 ft 162 kts 321°
2026-04-12 01:28 37.10545 -76.62932 461 ft 159 kts 321°
2026-04-12 01:28 37.11403 -76.63849 463 ft 163 kts 321°
2026-04-12 01:28 37.12262 -76.64766 460 ft 160 kts 321°
2026-04-12 01:28 37.13115 -76.65678 461 ft 162 kts 321°
2026-04-12 01:29 37.13973 -76.66581 459 ft 161 kts 321°
2026-04-12 01:29 37.14833 -76.67494 464 ft 162 kts 321°
2026-04-12 01:29 37.15687 -76.68402 463 ft 160 kts 321°
2026-04-12 01:29 37.16548 -76.69304 466 ft 162 kts 321°
2026-04-12 01:30 37.17411 -76.70188 461 ft 160 kts 321°
2026-04-12 01:30 37.18284 -76.71069 462 ft 164 kts 321°
2026-04-12 01:30 37.18858 -76.71673 457 ft 163 kts 321°
2026-04-12 01:30 37.19750 -76.72591 459 ft 164 kts 321°
2026-04-12 01:31 37.20632 -76.73497 462 ft 164 kts 321°
2026-04-12 01:31 37.21518 -76.74407 464 ft 164 kts 321°
2026-04-12 01:31 37.22380 -76.75305 468 ft 161 kts 321°
2026-04-12 01:31 37.23270 -76.76207 463 ft 168 kts 321°
2026-04-12 01:32 37.24145 -76.77138 459 ft 166 kts 321°
2026-04-12 01:32 37.25017 -76.78050 458 ft 165 kts 321°
2026-04-12 01:32 37.25910 -76.78989 465 ft 163 kts 321°
2026-04-12 01:32 37.26774 -76.79899 461 ft 159 kts 321°
2026-04-12 01:33 37.27624 -76.80794 453 ft 161 kts 321°
2026-04-12 01:33 37.28484 -76.81692 455 ft 162 kts 321°
2026-04-12 01:33 37.29351 -76.82596 455 ft 165 kts 321°
2026-04-12 01:33 37.30224 -76.83518 455 ft 165 kts 321°
2026-04-12 01:34 37.31084 -76.84441 458 ft 160 kts 321°
2026-04-12 01:34 37.31946 -76.85346 458 ft 161 kts 321°
2026-04-12 01:34 37.32804 -76.86229 457 ft 161 kts 321°
2026-04-12 01:34 37.33668 -76.87130 457 ft 161 kts 322°
2026-04-12 01:35 37.34527 -76.88039 442 ft 162 kts 322°
2026-04-12 01:35 37.35381 -76.88954 446 ft 162 kts 321°
2026-04-12 01:35 37.36230 -76.89867 436 ft 158 kts 321°
2026-04-12 01:35 37.37083 -76.90768 446 ft 159 kts 322°
2026-04-12 01:36 37.37937 -76.91653 447 ft 159 kts 322°
2026-04-12 01:36 37.38790 -76.92554 448 ft 161 kts 322°
2026-04-12 01:36 37.39641 -76.93463 446 ft 161 kts 322°
2026-04-12 01:36 37.40493 -76.94382 442 ft 161 kts 322°
2026-04-12 01:37 37.41343 -76.95294 443 ft 161 kts 322°
2026-04-12 01:37 37.42198 -76.96205 443 ft 161 kts 322°
2026-04-12 01:37 37.43052 -76.97114 448 ft 159 kts 322°
2026-04-12 01:37 37.43903 -76.98025 445 ft 159 kts 322°
2026-04-12 01:38 37.44754 -76.98927 442 ft 159 kts 322°
2026-04-12 01:38 37.45600 -76.99830 440 ft 159 kts 322°
2026-04-12 01:38 37.46447 -77.00730 446 ft 160 kts 321°
2026-04-12 01:38 37.47292 -77.01620 446 ft 158 kts 322°
2026-04-12 01:39 37.48134 -77.02504 446 ft 159 kts 322°
2026-04-12 01:39 37.48977 -77.03408 444 ft 159 kts 321°
2026-04-12 01:39 37.49827 -77.04302 442 ft 160 kts 322°
2026-04-12 01:39 37.50669 -77.05191 433 ft 161 kts 322°
2026-04-12 01:40 37.51522 -77.06104 445 ft 161 kts 322°
2026-04-12 01:40 37.52380 -77.07017 447 ft 161 kts 322°
2026-04-12 01:40 37.53231 -77.07920 443 ft 158 kts 322°
2026-04-12 01:40 37.54094 -77.08823 442 ft 166 kts 324°
2026-04-12 01:41 37.55134 -77.09485 446 ft 169 kts 345°
2026-04-12 01:41 37.56288 -77.09845 437 ft 173 kts 349°
2026-04-12 01:41 37.57366 -77.10151 453 ft 136 kts 352°
2026-04-12 01:41 37.58200 -77.10279 457 ft 110 kts 357°
2026-04-12 01:42 37.58910 -77.10393 458 ft 97 kts 357°
2026-04-12 01:42 37.59547 -77.10522 454 ft 89 kts 357°
2026-04-12 01:42 37.60133 -77.10643 448 ft 84 kts 357°
2026-04-12 01:42 37.60696 -77.10752 447 ft 80 kts 357°
2026-04-12 01:43 37.61421 -77.10860 421 ft 132 kts 357°
2026-04-12 01:43 37.62460 -77.10991 424 ft 164 kts 357°
2026-04-12 01:43 37.63573 -77.11128 443 ft 152 kts 357°
2026-04-12 01:43 37.64657 -77.11262 441 ft 155 kts 357°
2026-04-12 01:44 37.65720 -77.11375 441 ft 147 kts
2026-04-12 01:44 37.66719 -77.11378 434 ft 141 kts
2026-04-12 01:44 37.67681 -77.11381 437 ft 136 kts
2026-04-12 01:44 37.68627 -77.11320 455 ft 137 kts 10°
2026-04-12 01:45 37.69586 -77.11148 457 ft 141 kts 10°
2026-04-12 01:45 37.70550 -77.10994 463 ft 138 kts 10°
2026-04-12 01:45 37.71502 -77.10840 461 ft 137 kts 10°
2026-04-12 01:45 37.72468 -77.10680 456 ft 149 kts 10°
2026-04-12 01:46 37.73532 -77.10503 462 ft 151 kts 10°
2026-04-12 01:46 37.74592 -77.10325 464 ft 153 kts 10°
2026-04-12 01:46 37.75650 -77.10135 466 ft 153 kts 10°
2026-04-12 01:46 37.76712 -77.09944 467 ft 154 kts 10°
2026-04-12 01:47 37.77773 -77.09766 467 ft 154 kts 10°
2026-04-12 01:47 37.78831 -77.09580 469 ft 153 kts 10°
2026-04-12 01:47 37.79874 -77.09389 469 ft 153 kts 10°
2026-04-12 01:47 37.80933 -77.09199 471 ft 155 kts 10°
2026-04-12 01:48 37.81996 -77.09014 471 ft 154 kts 10°
2026-04-12 01:48 37.83051 -77.08824 471 ft 153 kts 10°
2026-04-12 01:48 37.84108 -77.08633 472 ft 154 kts 10°
2026-04-12 01:48 37.85166 -77.08441 472 ft 153 kts 10°
2026-04-12 01:49 37.86229 -77.08245 473 ft 155 kts 10°
2026-04-12 01:49 37.87290 -77.08047 472 ft 154 kts 10°
2026-04-12 01:49 37.88351 -77.07860 473 ft 154 kts 10°
2026-04-12 01:49 37.89406 -77.07671 474 ft 154 kts 10°
2026-04-12 01:50 37.90464 -77.07476 473 ft 153 kts 10°
2026-04-12 01:50 37.91518 -77.07284 472 ft 153 kts 10°
2026-04-12 01:50 37.92576 -77.07097 472 ft 155 kts 10°
2026-04-12 01:50 37.93621 -77.06908 472 ft 154 kts 10°
2026-04-12 01:51 37.95735 -77.06528 471 ft 153 kts 10°
2026-04-12 01:51 37.96791 -77.06334 470 ft 153 kts 10°
2026-04-12 01:51 37.97849 -77.06154 451 ft 154 kts 10°
2026-04-12 01:52 37.98906 -77.05992 446 ft 152 kts 10°
2026-04-12 01:52 37.99956 -77.05829 447 ft 152 kts 10°
2026-04-12 01:52 38.01007 -77.05650 448 ft 152 kts 10°
2026-04-12 01:52 38.02067 -77.05470 448 ft 154 kts 10°
2026-04-12 01:53 38.03130 -77.05298 446 ft 155 kts 10°
2026-04-12 01:53 38.04193 -77.05128 451 ft 153 kts 10°
2026-04-12 01:53 38.05227 -77.04958 451 ft 153 kts 10°
2026-04-12 01:53 38.06282 -77.04788 449 ft 153 kts 10°
2026-04-12 01:54 38.07338 -77.04616 448 ft 153 kts 10°
2026-04-12 01:54 38.08397 -77.04442 454 ft 152 kts 10°
2026-04-12 01:54 38.09449 -77.04268 454 ft 152 kts 10°
2026-04-12 01:54 38.10507 -77.04098 451 ft 153 kts 10°
2026-04-12 01:55 38.11559 -77.03922 450 ft 152 kts 10°
2026-04-12 01:55 38.12616 -77.03743 448 ft 153 kts 10°
2026-04-12 01:55 38.13675 -77.03570 448 ft 153 kts 10°
2026-04-12 01:55 38.14731 -77.03401 447 ft 152 kts 10°
2026-04-12 01:56 38.15780 -77.03232 451 ft 151 kts 10°
2026-04-12 01:56 38.16831 -77.03064 451 ft 153 kts 10°
2026-04-12 01:56 38.17883 -77.02893 451 ft 155 kts 10°
2026-04-12 01:56 38.18947 -77.02718 447 ft 155 kts 10°
2026-04-12 01:57 38.20011 -77.02548 450 ft 153 kts 10°
2026-04-12 01:57 38.21048 -77.02392 450 ft 152 kts 10°
2026-04-12 01:57 38.22101 -77.02228 455 ft 152 kts 10°
2026-04-12 01:57 38.23153 -77.02052 452 ft 153 kts 10°
2026-04-12 01:58 38.24212 -77.01883 454 ft 152 kts 10°
2026-04-12 01:58 38.25262 -77.01720 456 ft 151 kts 10°
2026-04-12 01:58 38.26314 -77.01550 456 ft 153 kts 10°
2026-04-12 01:58 38.27366 -77.01376 453 ft 153 kts 10°
2026-04-12 01:59 38.28423 -77.01205 453 ft 153 kts 10°
2026-04-12 01:59 38.29479 -77.01028 456 ft 153 kts 10°
2026-04-12 01:59 38.30536 -77.00851 456 ft 153 kts 10°
2026-04-12 01:59 38.31586 -77.00683 459 ft 152 kts 10°
2026-04-12 02:00 38.32634 -77.00513 460 ft 152 kts 10°
2026-04-12 02:00 38.33677 -77.00336 458 ft 154 kts 10°
2026-04-12 02:00 38.34725 -77.00145 463 ft 145 kts 13°
2026-04-12 02:00 38.35561 -76.99604 471 ft 129 kts 43°
2026-04-12 02:01 38.35949 -76.98647 468 ft 122 kts 83°
2026-04-12 02:01 38.35591 -76.97684 453 ft 129 kts 137°
2026-04-12 02:01 38.34771 -76.97127 463 ft 137 kts 157°
2026-04-12 02:01 38.33829 -76.96850 461 ft 141 kts 172°
2026-04-12 02:02 38.32859 -76.96729 464 ft 141 kts 173°
2026-04-12 02:02 38.31824 -76.96498 454 ft 160 kts 165°
2026-04-12 02:02 38.30765 -76.96109 462 ft 150 kts 162°
2026-04-12 02:02 38.29734 -76.95723 457 ft 154 kts 162°
2026-04-12 02:03 38.28718 -76.95347 457 ft 154 kts 162°
2026-04-12 02:03 38.27678 -76.94965 454 ft 153 kts 162°
2026-04-12 02:03 38.26667 -76.94594 455 ft 152 kts 162°
2026-04-12 02:03 38.25643 -76.94211 454 ft 154 kts 162°
2026-04-12 02:04 38.24622 -76.93823 454 ft 154 kts 162°
2026-04-12 02:04 38.23601 -76.93430 455 ft 153 kts 162°
2026-04-12 02:04 38.22579 -76.93047 453 ft 153 kts 162°
2026-04-12 02:04 38.21555 -76.92667 449 ft 154 kts 162°
2026-04-12 02:05 38.20530 -76.92278 451 ft 152 kts 162°
2026-04-12 02:05 38.19509 -76.91894 451 ft 152 kts 162°
2026-04-12 02:05 38.18492 -76.91509 449 ft 153 kts 162°
2026-04-12 02:05 38.17474 -76.91120 451 ft 153 kts 162°
2026-04-12 02:06 38.16461 -76.90737 453 ft 153 kts 162°
2026-04-12 02:06 38.15427 -76.90348 452 ft 154 kts 162°
2026-04-12 02:06 38.14411 -76.89975 450 ft 154 kts 162°
2026-04-12 02:06 38.13388 -76.89598 450 ft 153 kts 162°
2026-04-12 02:07 38.12369 -76.89212 448 ft 153 kts 162°
2026-04-12 02:07 38.11350 -76.88822 447 ft 153 kts 162°
2026-04-12 02:07 38.10329 -76.88422 451 ft 153 kts 162°
2026-04-12 02:07 38.09307 -76.88035 452 ft 154 kts 162°
2026-04-12 02:08 38.08283 -76.87649 451 ft 154 kts 162°
2026-04-12 02:08 38.07255 -76.87260 449 ft 154 kts 162°
2026-04-12 02:08 38.06235 -76.86867 450 ft 153 kts 162°
2026-04-12 02:08 38.05217 -76.86470 448 ft 153 kts 162°
2026-04-12 02:09 38.04197 -76.86080 449 ft 153 kts 162°
2026-04-12 02:09 38.03178 -76.85697 445 ft 153 kts 162°
2026-04-12 02:09 38.02160 -76.85308 448 ft 153 kts 162°
2026-04-12 02:09 38.01152 -76.84926 447 ft 153 kts 162°
2026-04-12 02:10 38.00133 -76.84549 446 ft 152 kts 162°
2026-04-12 02:10 37.99105 -76.84167 447 ft 153 kts 162°
2026-04-12 02:10 37.98086 -76.83787 444 ft 151 kts 162°
2026-04-12 02:10 37.97071 -76.83406 448 ft 152 kts 162°
2026-04-12 02:11 37.96051 -76.83019 447 ft 153 kts 162°
2026-04-12 02:11 37.95033 -76.82640 446 ft 153 kts 162°
2026-04-12 02:11 37.94009 -76.82253 450 ft 154 kts 162°
2026-04-12 02:11 37.92990 -76.81872 446 ft 152 kts 162°
2026-04-12 02:12 37.91985 -76.81495 448 ft 154 kts 162°
2026-04-12 02:12 37.90971 -76.81105 450 ft 152 kts 162°
2026-04-12 02:12 37.89968 -76.80722 451 ft 151 kts 162°
2026-04-12 02:12 37.88942 -76.80326 450 ft 153 kts 162°
2026-04-12 02:13 37.87941 -76.79948 449 ft 151 kts 162°
2026-04-12 02:13 37.86923 -76.79573 451 ft 151 kts 162°
2026-04-12 02:13 37.85913 -76.79206 456 ft 149 kts 162°
2026-04-12 02:13 37.84916 -76.78836 460 ft 148 kts 162°
2026-04-12 02:14 37.83912 -76.78453 465 ft 151 kts 162°
2026-04-12 02:14 37.82909 -76.78058 462 ft 150 kts 162°
2026-04-12 02:14 37.81905 -76.77675 461 ft 151 kts 162°
2026-04-12 02:14 37.80896 -76.77293 465 ft 150 kts 162°
2026-04-12 02:15 37.79887 -76.76904 466 ft 151 kts 162°
2026-04-12 02:15 37.79222 -76.76646 470 ft 152 kts 162°
2026-04-12 02:15 37.77889 -76.76128 468 ft 151 kts 162°
2026-04-12 02:15 37.76891 -76.75740 467 ft 151 kts 162°
2026-04-12 02:16 37.75886 -76.75360 473 ft 152 kts 162°
2026-04-12 02:16 37.74880 -76.74973 476 ft 150 kts 162°
2026-04-12 02:16 37.74203 -76.74712 465 ft 150 kts 162°
2026-04-12 02:16 37.73200 -76.74340 472 ft 150 kts 162°
2026-04-12 02:17 37.72205 -76.73955 478 ft 150 kts 162°
2026-04-12 02:17 37.71228 -76.73584 480 ft 150 kts 162°
2026-04-12 02:17 37.70242 -76.73197 477 ft 148 kts 162°
2026-04-12 02:17 37.69256 -76.72803 484 ft 150 kts 162°
2026-04-12 02:18 37.68262 -76.72406 491 ft 149 kts 162°
2026-04-12 02:18 37.67269 -76.72014 489 ft 148 kts 162°
2026-04-12 02:18 37.66272 -76.71628 488 ft 150 kts 162°
2026-04-12 02:18 37.65270 -76.71239 490 ft 151 kts 162°
2026-04-12 02:19 37.64277 -76.70853 486 ft 150 kts 162°
2026-04-12 02:19 37.63287 -76.70467 503 ft 148 kts 162°
2026-04-12 02:19 37.62311 -76.70087 499 ft 150 kts 162°
2026-04-12 02:19 37.61323 -76.69699 498 ft 151 kts 162°
2026-04-12 02:20 37.60327 -76.69310 498 ft 150 kts 162°
2026-04-12 02:20 37.59336 -76.68921 494 ft 148 kts 162°
2026-04-12 02:20 37.58351 -76.68547 496 ft 148 kts 162°
2026-04-12 02:20 37.57370 -76.68174 495 ft 147 kts 162°
2026-04-12 02:21 37.56383 -76.67791 497 ft 149 kts 162°
2026-04-12 02:21 37.55391 -76.67406 498 ft 149 kts 162°
2026-04-12 02:21 37.54396 -76.67018 497 ft 150 kts 162°
2026-04-12 02:21 37.53422 -76.66643 494 ft 150 kts 162°
2026-04-12 02:22 37.52411 -76.66263 502 ft 147 kts 162°
2026-04-12 02:22 37.51424 -76.65880 500 ft 148 kts 162°
2026-04-12 02:22 37.50432 -76.65495 499 ft 150 kts 162°
2026-04-12 02:22 37.49443 -76.65104 503 ft 149 kts 162°
2026-04-12 02:23 37.48452 -76.64706 502 ft 150 kts 162°
2026-04-12 02:23 37.47459 -76.64317 496 ft 148 kts 162°
2026-04-12 02:23 37.46473 -76.63930 487 ft 149 kts 162°
2026-04-12 02:23 37.45475 -76.63535 490 ft 151 kts 162°
2026-04-12 02:24 37.44482 -76.63152 492 ft 148 kts 162°
2026-04-12 02:24 37.43498 -76.62770 493 ft 147 kts 162°
2026-04-12 02:24 37.42517 -76.62398 491 ft 146 kts 162°
2026-04-12 02:24 37.41546 -76.62037 490 ft 145 kts 162°
2026-04-12 02:25 37.40563 -76.61659 489 ft 148 kts 162°
2026-04-12 02:25 37.39588 -76.61281 488 ft 151 kts 162°
2026-04-12 02:25 37.38596 -76.60899 480 ft 148 kts 162°
2026-04-12 02:25 37.37613 -76.60524 486 ft 147 kts 162°
2026-04-12 02:26 37.36629 -76.60149 482 ft 148 kts 162°
2026-04-12 02:26 37.35641 -76.59765 482 ft 148 kts 162°
2026-04-12 02:26 37.34650 -76.59377 483 ft 150 kts 162°
2026-04-12 02:26 37.33659 -76.58998 477 ft 150 kts 162°
2026-04-12 02:27 37.32672 -76.58620 478 ft 147 kts 162°
2026-04-12 02:27 37.31674 -76.58260 480 ft 150 kts 162°
2026-04-12 02:27 37.30682 -76.57896 475 ft 148 kts 162°
2026-04-12 02:27 37.29702 -76.57541 477 ft 145 kts 162°
2026-04-12 02:28 37.28721 -76.57192 475 ft 149 kts 162°
2026-04-12 02:28 37.27732 -76.56823 473 ft 147 kts 162°
2026-04-12 02:28 37.26744 -76.56461 470 ft 147 kts 162°
2026-04-12 02:28 37.25746 -76.56089 473 ft 152 kts 162°
2026-04-12 02:29 37.24739 -76.55705 476 ft 151 kts 162°
2026-04-12 02:29 37.23748 -76.55343 477 ft 146 kts 162°
2026-04-12 02:29 37.22763 -76.54983 480 ft 148 kts 162°
2026-04-12 02:29 37.21753 -76.54626 487 ft 152 kts 162°
2026-04-12 02:30 37.20743 -76.54254 492 ft 152 kts 162°
2026-04-12 02:30 37.19736 -76.53876 489 ft 151 kts 162°
2026-04-12 02:30 37.18718 -76.53517 488 ft 150 kts 162°
2026-04-12 02:30 37.17710 -76.53170 487 ft 150 kts 162°
2026-04-12 02:31 37.16712 -76.52801 487 ft 155 kts 160°
2026-04-12 02:31 37.15689 -76.52252 484 ft 163 kts 152°
2026-04-12 02:31 37.14763 -76.51644 488 ft 146 kts 150°
2026-04-12 02:31 37.13847 -76.51049 488 ft 149 kts 150°
2026-04-12 02:32 37.12922 -76.50450 485 ft 149 kts 150°
2026-04-12 02:32 37.11996 -76.49855 492 ft 149 kts 150°
2026-04-12 02:32 37.11073 -76.49267 492 ft 149 kts 150°
2026-04-12 02:32 37.10143 -76.48632 486 ft 158 kts 148°
2026-04-12 02:33 37.09255 -76.47878 492 ft 143 kts 143°
2026-04-12 02:33 37.08410 -76.47155 492 ft 145 kts 143°
2026-04-12 02:33 37.07580 -76.46439 494 ft 145 kts 143°
2026-04-12 02:33 37.06817 -76.45662 488 ft 142 kts 136°
2026-04-12 02:34 37.06062 -76.44815 455 ft 144 kts 136°
2026-04-12 02:34 37.05336 -76.43974 461 ft 145 kts 136°
2026-04-12 02:34 37.04589 -76.43121 475 ft 145 kts 136°
2026-04-12 02:34 37.03824 -76.42248 472 ft 147 kts 136°
2026-04-12 02:35 37.03089 -76.41393 471 ft 146 kts 136°
2026-04-12 02:35 37.02337 -76.40557 463 ft 144 kts 136°
2026-04-12 02:35 37.01588 -76.39719 462 ft 145 kts 136°
2026-04-12 02:35 37.00849 -76.38886 467 ft 140 kts 136°
2026-04-12 02:36 37.00120 -76.38058 466 ft 143 kts 136°
2026-04-12 02:36 36.99387 -76.37226 471 ft 143 kts 136°
2026-04-12 02:36 36.98656 -76.36367 483 ft 145 kts 136°
2026-04-12 02:36 36.97924 -76.35504 482 ft 141 kts 136°
2026-04-12 02:37 36.97201 -76.34664 482 ft 142 kts 136°
2026-04-12 02:37 36.96471 -76.33812 479 ft 144 kts 136°
2026-04-12 02:37 36.95733 -76.32968 480 ft 144 kts 136°
2026-04-12 02:37 36.95001 -76.32110 480 ft 147 kts 136°
2026-04-12 02:38 36.94260 -76.31229 482 ft 146 kts 136°
2026-04-12 02:38 36.93522 -76.30376 482 ft 146 kts 136°
2026-04-12 02:38 36.92777 -76.29530 480 ft 146 kts 136°
2026-04-12 02:38 36.92034 -76.28651 484 ft 146 kts 136°
2026-04-12 02:39 36.91342 -76.27635 475 ft 161 kts 124°
2026-04-12 02:39 36.90817 -76.26463 487 ft 138 kts 119°
2026-04-12 02:39 36.90332 -76.25355 481 ft 146 kts 119°
2026-04-12 02:39 36.89835 -76.24228 481 ft 149 kts 119°
2026-04-12 02:40 36.89336 -76.23099 480 ft 148 kts 119°
2026-04-12 02:40 36.88837 -76.21977 482 ft 147 kts 119°
2026-04-12 02:40 36.88341 -76.20866 481 ft 146 kts 119°
2026-04-12 02:40 36.87844 -76.19749 482 ft 148 kts 119°
2026-04-12 02:41 36.87354 -76.18651 479 ft 145 kts 119°
2026-04-12 02:41 36.86855 -76.17535 480 ft 147 kts 119°
2026-04-12 02:41 36.86387 -76.16482 482 ft 135 kts 119°
2026-04-12 02:41 36.85912 -76.15416 480 ft 149 kts 119°
2026-04-12 02:42 36.85414 -76.14294 478 ft 147 kts 119°
2026-04-12 02:42 36.84920 -76.13195 481 ft 143 kts 119°
2026-04-12 02:42 36.84430 -76.12102 484 ft 139 kts 119°
2026-04-12 02:43 36.83504 -76.09995 477 ft 151 kts 119°
2026-04-12 02:43 36.83009 -76.08873 481 ft 144 kts 119°
2026-04-12 02:43 36.82529 -76.07803 462 ft 137 kts 120°
2026-04-12 02:43 36.82197 -76.06691 637 ft 139 kts 100°
2026-04-12 02:44 36.82040 -76.05573 315 ft 120 kts 102°
2026-04-12 02:44 36.81837 -76.04659 298 ft 104 kts 117°
2026-04-12 02:44 36.81481 -76.03971 86 ft 69 kts 120°
2026-04-12 02:44 36.81409 -76.03738 91 ft 4 kts 112°
2026-04-12 02:45 36.81406 -76.03682 88 ft 16 kts 77°
2026-04-12 02:45 36.81431 -76.03532 81 ft 19 kts 73°
2026-04-12 02:45 36.81491 -76.03384 59 ft 18 kts 49°
2026-04-12 02:45 36.81522 -76.03344 33 ft 0 kts 45°
2026-04-12 02:46 36.81523 -76.03345 29 ft 0 kts 45°
2026-04-12 02:46 36.81524 -76.03342 30 ft 1 kts 45°